SVR469 URSS-UWWW

Flight info

Callsign SVR469
Flight time N/A
Altitude 34000
Route ADNET W79 NZ B145 NOBLO/K0835F380 B145 ER G128 MOR R720 IDKIP/K0845F370 R720 DAFOS P135 TUNIG
Aircraft A319/M-SDE3FGHIRWY/LB1

Departure

Time N/A
Airport Sochi International Airport (URSS)

Arrival

Time 2026-04-30 19:10
Airport Kurumoch International Airport (UWWW)
Time Latitude Longitude Altitude Speed Heading
2026-04-30 17:39 45.10520 39.69560 34193 ft 452 kts 343°
2026-04-30 17:41 45.35641 39.76271 34208 ft 488 kts 18°
2026-04-30 17:42 45.41809 39.80303 34203 ft 488 kts 18°
2026-04-30 17:43 45.57225 39.90439 34211 ft 488 kts 18°
2026-04-30 17:44 45.75710 40.02684 34214 ft 488 kts 18°
2026-04-30 17:47 46.03076 40.22404 34206 ft 491 kts 21°
2026-04-30 17:48 46.24285 40.38361 34212 ft 491 kts 19°
2026-04-30 17:50 46.48245 40.57377 34215 ft 492 kts 22°
2026-04-30 17:52 46.66567 40.69506 34210 ft 475 kts
2026-04-30 17:54 46.94984 40.82244 34220 ft 474 kts
2026-04-30 17:56 47.20157 40.93705 34212 ft 473 kts
2026-04-30 17:58 47.39048 41.02376 34209 ft 473 kts
2026-04-30 18:00 47.63802 41.15945 34204 ft 488 kts 24°
2026-04-30 18:01 47.78373 41.28939 34206 ft 489 kts 25°
2026-04-30 18:02 47.95791 41.44709 34205 ft 490 kts 25°
2026-04-30 18:04 48.13238 41.60684 34205 ft 490 kts 26°
2026-04-30 18:06 48.36308 41.82579 34215 ft 495 kts 34°
2026-04-30 18:08 48.54157 42.04212 34220 ft 493 kts 34°
2026-04-30 18:10 48.75425 42.30249 34224 ft 491 kts 35°
2026-04-30 18:11 48.93939 42.53126 34211 ft 489 kts 35°
2026-04-30 18:13 49.07092 42.69536 34207 ft 488 kts 36°
2026-04-30 18:14 49.20188 42.85975 34197 ft 487 kts 36°
2026-04-30 18:15 49.35839 43.05777 34197 ft 487 kts 36°
2026-04-30 18:16 49.46255 43.19060 34197 ft 486 kts 37°
2026-04-30 18:17 49.51449 43.25718 34191 ft 485 kts 37°
2026-04-30 18:18 49.59223 43.35699 34197 ft 485 kts 37°
2026-04-30 18:18 49.64392 43.42367 34196 ft 484 kts 37°
2026-04-30 18:19 49.69557 43.49033 34427 ft 484 kts 37°
2026-04-30 18:19 49.72143 43.52379 34657 ft 486 kts 37°
2026-04-30 18:19 49.74743 43.55747 34890 ft 489 kts 37°
2026-04-30 18:19 49.77359 43.59145 35093 ft 493 kts 37°
2026-04-30 18:20 49.79988 43.62566 35163 ft 495 kts 37°
2026-04-30 18:20 49.85260 43.69452 35174 ft 496 kts 38°
2026-04-30 18:21 49.90524 43.76355 35176 ft 495 kts 38°
2026-04-30 18:21 49.95785 43.83255 35173 ft 495 kts 38°
2026-04-30 18:22 50.01051 43.90167 35169 ft 495 kts 38°
2026-04-30 18:22 50.06307 43.97104 35324 ft 496 kts 38°
2026-04-30 18:22 50.08931 44.00584 35671 ft 496 kts 38°
2026-04-30 18:23 50.11558 44.04074 35981 ft 496 kts 38°
2026-04-30 18:23 50.14180 44.07561 36277 ft 496 kts 38°
2026-04-30 18:23 50.16803 44.11051 36557 ft 496 kts 38°
2026-04-30 18:23 50.19425 44.14539 36840 ft 496 kts 38°
2026-04-30 18:24 50.24682 44.21535 37164 ft 497 kts 38°
2026-04-30 18:24 50.27307 44.25037 37163 ft 496 kts 38°
2026-04-30 18:25 50.32512 44.32014 37165 ft 496 kts 39°
2026-04-30 18:25 50.40359 44.42581 37162 ft 496 kts 39°
2026-04-30 18:26 50.48204 44.53162 37159 ft 496 kts 39°
2026-04-30 18:27 50.56033 44.63789 37159 ft 496 kts 39°
2026-04-30 18:28 50.63857 44.74456 37156 ft 496 kts 39°
2026-04-30 18:28 50.71135 44.85953 37147 ft 498 kts 61°
2026-04-30 18:29 50.72430 44.90996 37150 ft 497 kts 77°
2026-04-30 18:29 50.73608 45.07202 37131 ft 496 kts 86°
2026-04-30 18:30 50.74884 45.28914 37118 ft 497 kts 86°
2026-04-30 18:31 50.75845 45.45212 37116 ft 497 kts 86°
2026-04-30 18:32 50.76815 45.61509 37111 ft 497 kts 86°
2026-04-30 18:33 50.77797 45.77808 37102 ft 497 kts 86°
2026-04-30 18:33 50.78793 45.94114 37104 ft 497 kts 86°
2026-04-30 18:34 50.79353 45.99498 37114 ft 498 kts 74°
2026-04-30 18:34 50.81613 46.09870 37109 ft 499 kts 71°
2026-04-30 18:35 50.83957 46.20211 37105 ft 500 kts 71°
2026-04-30 18:35 50.86875 46.30176 37105 ft 500 kts 61°
2026-04-30 18:36 50.91966 46.44624 37103 ft 501 kts 61°
2026-04-30 18:37 50.97070 46.59076 37098 ft 501 kts 61°
2026-04-30 18:37 51.00478 46.68723 37094 ft 501 kts 61°
2026-04-30 18:38 51.03891 46.78382 37098 ft 501 kts 61°
2026-04-30 18:38 51.07302 46.88044 37098 ft 501 kts 61°
2026-04-30 18:39 51.10713 46.97709 37097 ft 501 kts 61°
2026-04-30 18:39 51.14564 47.06935 37099 ft 501 kts 50°
2026-04-30 18:40 51.18980 47.15525 37102 ft 501 kts 50°
2026-04-30 18:40 51.23404 47.24123 37102 ft 501 kts 51°
2026-04-30 18:41 51.27820 47.32727 37103 ft 501 kts 51°
2026-04-30 18:41 51.32239 47.41330 37103 ft 501 kts 51°
2026-04-30 18:42 51.36647 47.49946 37104 ft 500 kts 51°
2026-04-30 18:42 51.43195 47.62939 37100 ft 500 kts 51°
2026-04-30 18:45 51.67095 48.10719 37077 ft 498 kts 52°
2026-04-30 18:46 51.71411 48.19433 37075 ft 498 kts 52°
2026-04-30 18:46 51.75719 48.28173 37071 ft 497 kts 52°
2026-04-30 18:47 51.79986 48.36855 37066 ft 497 kts 53°
2026-04-30 18:47 51.84313 48.45668 37064 ft 497 kts 53°
2026-04-30 18:48 51.88601 48.54449 37066 ft 498 kts 53°
2026-04-30 18:48 51.92881 48.63263 37071 ft 498 kts 53°
2026-04-30 18:49 51.97163 48.72095 36885 ft 500 kts 53°
2026-04-30 18:49 51.99305 48.76524 36456 ft 495 kts 53°
2026-04-30 18:49 52.01418 48.80902 36212 ft 491 kts 54°
2026-04-30 18:49 52.03520 48.85263 35835 ft 490 kts 54°
2026-04-30 18:50 52.05639 48.89670 34704 ft 500 kts 54°
2026-04-30 18:50 52.07761 48.94092 33650 ft 503 kts 54°
2026-04-30 18:50 52.09217 48.97131 32751 ft 506 kts 54°
2026-04-30 18:50 52.11377 49.01647 31591 ft 505 kts 54°
2026-04-30 18:51 52.14230 49.07625 30010 ft 504 kts 55°
2026-04-30 18:51 52.16363 49.12097 28989 ft 495 kts 55°
2026-04-30 18:51 52.17774 49.15055 28508 ft 485 kts 55°
2026-04-30 18:51 52.20469 49.20710 27471 ft 469 kts 55°
2026-04-30 18:52 52.21812 49.23531 26965 ft 462 kts 55°
2026-04-30 18:52 52.23755 49.27626 26254 ft 452 kts 55°
2026-04-30 18:52 52.25658 49.31656 25549 ft 443 kts 55°
2026-04-30 18:52 52.27519 49.35604 24855 ft 435 kts 55°
2026-04-30 18:53 52.29347 49.39490 24170 ft 428 kts 55°
2026-04-30 18:53 52.31144 49.43316 23490 ft 421 kts 54°
2026-04-30 18:53 52.32913 49.47089 22814 ft 415 kts 54°
2026-04-30 18:53 52.34650 49.50792 22245 ft 407 kts 54°
2026-04-30 18:54 52.36360 49.54431 21690 ft 399 kts 54°
2026-04-30 18:54 52.38039 49.58011 21164 ft 395 kts 54°
2026-04-30 18:54 52.39703 49.61570 20658 ft 393 kts 54°
2026-04-30 18:54 52.41356 49.65114 20145 ft 390 kts 54°
2026-04-30 18:55 52.42996 49.68634 19647 ft 387 kts 54°
2026-04-30 18:55 52.46243 49.75615 18629 ft 383 kts 54°
2026-04-30 18:55 52.47852 49.79082 18074 ft 381 kts 54°
2026-04-30 18:56 52.51039 49.85964 17003 ft 376 kts 55°
2026-04-30 18:56 52.52613 49.89369 16459 ft 373 kts 55°
2026-04-30 18:56 52.54180 49.92759 15927 ft 371 kts 55°
2026-04-30 18:57 52.57866 49.98644 14874 ft 373 kts 34°
2026-04-30 18:57 52.60165 50.00701 14604 ft 378 kts 25°
2026-04-30 18:57 52.62565 50.02453 14300 ft 377 kts 24°
2026-04-30 18:58 52.67344 50.05953 13636 ft 374 kts 24°
2026-04-30 18:58 52.69713 50.07690 13321 ft 372 kts 24°
2026-04-30 18:58 52.72065 50.09417 13013 ft 369 kts 24°
2026-04-30 18:59 52.76726 50.12843 12387 ft 364 kts 24°
2026-04-30 19:00 52.83591 50.17912 11472 ft 357 kts 24°
2026-04-30 19:00 52.85853 50.19556 11180 ft 354 kts 22°
2026-04-30 19:00 52.90662 50.20788 10627 ft 343 kts
2026-04-30 19:01 52.95141 50.21354 10343 ft 305 kts
2026-04-30 19:01 52.97226 50.21608 10019 ft 296 kts
2026-04-30 19:02 53.01309 50.22110 9755 ft 293 kts
2026-04-30 19:02 53.05391 50.22618 9085 ft 294 kts
2026-04-30 19:03 53.09448 50.23131 8208 ft 289 kts
2026-04-30 19:03 53.13421 50.23637 7372 ft 284 kts
2026-04-30 19:04 53.17328 50.24126 6564 ft 278 kts
2026-04-30 19:04 53.21152 50.24609 5684 ft 273 kts
2026-04-30 19:05 53.24946 50.25090 4495 ft 278 kts
2026-04-30 19:05 53.28727 50.25567 3590 ft 262 kts
2026-04-30 19:06 53.32115 50.25987 3316 ft 227 kts
2026-04-30 19:06 53.33637 50.26176 3230 ft 212 kts
2026-04-30 19:06 53.36400 50.26062 3002 ft 192 kts 346°
2026-04-30 19:07 53.38885 50.24586 2536 ft 180 kts 343°
2026-04-30 19:07 53.40059 50.23884 2247 ft 177 kts 344°
2026-04-30 19:08 53.42231 50.22588 1811 ft 149 kts 345°
2026-04-30 19:08 53.44026 50.21519 1460 ft 131 kts 345°
2026-04-30 19:08 53.44880 50.21018 1285 ft 129 kts 344°
2026-04-30 19:09 53.46578 50.20059 968 ft 129 kts 342°
2026-04-30 19:09 53.47421 50.19543 788 ft 128 kts 342°
2026-04-30 19:09 53.48259 50.19012 646 ft 129 kts 340°
2026-04-30 19:10 53.49870 50.18030 408 ft 116 kts 341°
2026-04-30 19:10 53.50797 50.17481 410 ft 32 kts 340°
2026-04-30 19:11 53.51012 50.17352 409 ft 33 kts 340°
2026-04-30 19:11 53.51390 50.17127 419 ft 16 kts 340°
2026-04-30 19:11 53.51429 50.17014 421 ft 12 kts 256°
2026-04-30 19:12 53.51390 50.16874 419 ft 14 kts 242°
2026-04-30 19:12 53.51342 50.16722 420 ft 14 kts 240°
2026-04-30 19:12 53.51297 50.16586 427 ft 13 kts 241°
2026-04-30 19:13 53.51212 50.16325 429 ft 14 kts 240°
2026-04-30 19:13 53.51131 50.16077 431 ft 10 kts 241°
2026-04-30 19:13 53.51100 50.15979 433 ft 8 kts 248°
2026-04-30 19:14 53.51116 50.15914 431 ft 6 kts 321°
2026-04-30 19:14 53.51150 50.15884 434 ft 2 kts 330°
2026-04-30 19:14 53.51153 50.15881 433 ft 0 kts 330°